• In Spain
  • List of Countries
  • For 7 days
  • Water Temperature
  • Satellite Maps
  • Weather Map
  • Weather Widgets
  • user-avatar
    Login

    Hourly Weather Rawson

    Today, 15 October, Monday

    Time Temperature Precipitation Wind Pressure Humidity
    00:00 +20°C° 0 mm 4 mps 752 mmHg 39%
    01:00 +20°C° 0 mm 5 mps 751 mmHg 39%
    02:00 +20°C° 0 mm 4 mps 750 mmHg 38%
    03:00 +19°C° 0 mm 5 mps 750 mmHg 38%
    04:00 +19°C° 0 mm 6 mps 750 mmHg 39%
    05:00 +19°C° 0 mm 6 mps 750 mmHg 40%
    06:00 +20°C° 0 mm 7 mps 750 mmHg 38%
    07:00 +20°C° 0 mm 8 mps 750 mmHg 35%
    08:00 +21°C° 0 mm 9 mps 750 mmHg 33%
    09:00 +21°C° 0 mm 9 mps 750 mmHg 30%
    10:00 +22°C° 0 mm 9 mps 750 mmHg 27%
    11:00 +22°C° 0 mm 9 mps 750 mmHg 23%
    12:00 +23°C° 0 mm 8 mps 749 mmHg 21%
    13:00 +24°C° 0 mm 8 mps 749 mmHg 19%
    14:00 +26°C° 0 mm 8 mps 748 mmHg 16%
    15:00 +26°C° 0 mm 7 mps 748 mmHg 16%
    16:00 +26°C° 0 mm 7 mps 748 mmHg 15%
    17:00 +24°C° 0 mm 7 mps 747 mmHg 14%
    18:00 +23°C° 0 mm 6 mps 748 mmHg 16%
    19:00 +22°C° 0 mm 6 mps 748 mmHg 18%
    20:00 +21°C° 0 mm 5 mps 749 mmHg 20%
    21:00 +20°C° 0 mm 5 mps 749 mmHg 22%
    22:00 +17°C° 0 mm 5 mps 750 mmHg 24%
    23:00 +17°C° 0 mm 4 mps 750 mmHg 26%

    Tomorrow, 16 October, Tuesday

    Time Temperature Precipitation Wind Pressure Humidity
    00:00 +17°C° 0 mm 4 mps 750 mmHg 28%
    01:00 +16°C° 0 mm 3 mps 750 mmHg 30%
    02:00 +15°C° 0 mm 2 mps 750 mmHg 32%
    03:00 +15°C° 0 mm 2 mps 750 mmHg 34%
    04:00 +13°C° 0 mm 3 mps 750 mmHg 35%
    05:00 +13°C° 0 mm 3 mps 750 mmHg 37%
    06:00 +14°C° 0 mm 4 mps 750 mmHg 34%
    07:00 +15°C° 0 mm 5 mps 750 mmHg 32%
    08:00 +16°C° 0 mm 7 mps 750 mmHg 29%
    09:00 +18°C° 0 mm 7 mps 749 mmHg 27%
    10:00 +20°C° 0 mm 8 mps 749 mmHg 24%
    11:00 +21°C° 0 mm 8 mps 749 mmHg 21%
    12:00 +23°C° 0 mm 8 mps 748 mmHg 19%
    13:00 +24°C° 0 mm 9 mps 747 mmHg 17%
    14:00 +26°C° 0 mm 9 mps 747 mmHg 16%
    15:00 +26°C° 0 mm 9 mps 747 mmHg 16%
    16:00 +24°C° 0 mm 9 mps 747 mmHg 16%
    17:00 +24°C° 0 mm 10 mps 746 mmHg 17%
    18:00 +23°C° 0 mm 9 mps 747 mmHg 19%
    19:00 +22°C° 0 mm 8 mps 747 mmHg 21%
    20:00 +21°C° 0 mm 7 mps 748 mmHg 23%
    21:00 +21°C° 0 mm 7 mps 749 mmHg 26%
    22:00 +20°C° 0 mm 7 mps 749 mmHg 28%
    23:00 +20°C° 0 mm 7 mps 750 mmHg 30%

    Day after tomorrow, 17 October, Wednesday

    Time Temperature Precipitation Wind Pressure Humidity
    00:00 +18°C° 0 mm 7 mps 750 mmHg 32%
    01:00 +17°C° 0 mm 6 mps 751 mmHg 34%
    02:00 +16°C° 0 mm 5 mps 751 mmHg 36%
    03:00 +15°C° 0 mm 5 mps 752 mmHg 38%
    04:00 +14°C° 0 mm 5 mps 753 mmHg 39%
    05:00 +14°C° 0 mm 5 mps 753 mmHg 41%
    06:00 +14°C° 0 mm 5 mps 754 mmHg 39%
    07:00 +14°C° 0 mm 5 mps 755 mmHg 37%
    08:00 +14°C° 0 mm 6 mps 755 mmHg 35%
    09:00 +15°C° 0 mm 6 mps 756 mmHg 35%
    10:00 +15°C° 0 mm 6 mps 757 mmHg 34%
    11:00 +16°C° 0 mm 7 mps 757 mmHg 34%
    12:00 +16°C° 0 mm 7 mps 758 mmHg 37%
    13:00 +16°C° 0 mm 8 mps 758 mmHg 40%
    14:00 +16°C° 0 mm 8 mps 758 mmHg 44%
    15:00 +15°C° 0 mm 9 mps 759 mmHg 49%
    16:00 +12°C° 0 mm 9 mps 759 mmHg 55%
    17:00 +11°C° 0 mm 10 mps 760 mmHg 60%
    18:00 +9°C° 0 mm 10 mps 761 mmHg 62%
    19:00 +10°C° 0 mm 9 mps 762 mmHg 64%
    20:00 +8°C° 0 mm 9 mps 763 mmHg 66%
    21:00 +8°C° 0 mm 9 mps 764 mmHg 65%
    22:00 +8°C° 0 mm 10 mps 764 mmHg 64%
    23:00 +7°C° 0 mm 10 mps 765 mmHg 62%

    18 October, Thursday

    Time Temperature Precipitation Wind Pressure Humidity
    00:00 +7°C° 0.1 mm 9 mps 765 mmHg 64%
    01:00 +7°C° 0.1 mm 9 mps 765 mmHg 66%
    02:00 +7°C° 0.1 mm 8 mps 766 mmHg 67%
    03:00 +7°C° 0.1 mm 8 mps 766 mmHg 68%
    04:00 +7°C° 0.1 mm 9 mps 767 mmHg 68%
    05:00 +7°C° 0.1 mm 9 mps 767 mmHg 69%
    06:00 +7°C° 0 mm 10 mps 768 mmHg 67%
    07:00 +8°C° 0 mm 10 mps 768 mmHg 64%
    08:00 +8°C° 0 mm 10 mps 769 mmHg 62%
    09:00 +8°C° 0 mm 10 mps 769 mmHg 59%
    10:00 +9°C° 0 mm 10 mps 770 mmHg 55%
    11:00 +11°C° 0 mm 9 mps 770 mmHg 52%
    12:00 +11°C° 0 mm 9 mps 771 mmHg 52%
    13:00 +10°C° 0 mm 9 mps 771 mmHg 51%
    14:00 +10°C° 0 mm 8 mps 771 mmHg 50%
    15:00 +10°C° 0 mm 9 mps 771 mmHg 51%
    16:00 +10°C° 0 mm 9 mps 771 mmHg 53%
    17:00 +9°C° 0 mm 10 mps 771 mmHg 54%
    18:00 +8°C° 0 mm 9 mps 772 mmHg 57%
    19:00 +7°C° 0 mm 8 mps 772 mmHg 61%
    20:00 +8°C° 0 mm 7 mps 772 mmHg 64%
    21:00 +6°C° 0 mm 7 mps 773 mmHg 65%
    22:00 +6°C° 0 mm 7 mps 773 mmHg 66%
    23:00 +7°C° 0 mm 6 mps 773 mmHg 67%

    19 October, Friday

    Time Temperature Precipitation Wind Pressure Humidity
    00:00 +7°C° 0 mm 6 mps 773 mmHg 67%
    01:00 +7°C° 0 mm 5 mps 773 mmHg 68%
    02:00 +7°C° 0 mm 5 mps 773 mmHg 68%
    03:00 +7°C° 0 mm 5 mps 773 mmHg 69%
    04:00 +7°C° 0 mm 4 mps 773 mmHg 69%
    05:00 +7°C° 0 mm 4 mps 773 mmHg 70%
    06:00 +7°C° 0 mm 4 mps 773 mmHg 68%
    07:00 +7°C° 0 mm 4 mps 773 mmHg 66%
    08:00 +8°C° 0 mm 4 mps 773 mmHg 65%
    09:00 +8°C° 0 mm 5 mps 773 mmHg 63%
    10:00 +9°C° 0 mm 5 mps 773 mmHg 61%
    11:00 +9°C° 0 mm 6 mps 773 mmHg 59%
    12:00 +9°C° 0 mm 6 mps 772 mmHg 58%
    13:00 +9°C° 0 mm 6 mps 772 mmHg 58%
    14:00 +9°C° 0 mm 6 mps 771 mmHg 57%
    15:00 +9°C° 0 mm 6 mps 771 mmHg 58%
    16:00 +9°C° 0 mm 6 mps 771 mmHg 60%
    17:00 +9°C° 0 mm 6 mps 770 mmHg 61%
    18:00 +8°C° 0 mm 6 mps 770 mmHg 63%
    19:00 +8°C° 0 mm 6 mps 770 mmHg 66%
    20:00 +8°C° 0 mm 7 mps 770 mmHg 68%
    21:00 +6°C° 0 mm 7 mps 770 mmHg 69%
    22:00 +6°C° 0 mm 7 mps 770 mmHg 70%
    23:00 +6°C° 0 mm 7 mps 769 mmHg 71%

    20 October, Saturday

    Time Temperature Precipitation Wind Pressure Humidity
    00:00 +6°C° 0.3 mm 7 mps 769 mmHg 74%
    01:00 +6°C° 0.3 mm 7 mps 768 mmHg 77%
    02:00 +5°C° 0.3 mm 7 mps 767 mmHg 80%
    03:00 +6°C° 0.6 mm 7 mps 767 mmHg 80%
    04:00 +6°C° 0.6 mm 8 mps 766 mmHg 79%
    05:00 +6°C° 0.6 mm 8 mps 765 mmHg 79%
    06:00 +6°C° 0.1 mm 9 mps 765 mmHg 78%
    07:00 +7°C° 0.1 mm 10 mps 764 mmHg 77%
    08:00 +7°C° 0.1 mm 11 mps 763 mmHg 76%
    09:00 +7°C° 1.2 mm 11 mps 763 mmHg 78%
    10:00 +7°C° 1.2 mm 12 mps 762 mmHg 80%
    11:00 +7°C° 1.2 mm 12 mps 761 mmHg 82%
    12:00 +7°C° 2.1 mm 11 mps 761 mmHg 82%
    13:00 +8°C° 2.1 mm 11 mps 760 mmHg 82%
    14:00 +8°C° 2.1 mm 10 mps 760 mmHg 81%
    15:00 +8°C° 0.6 mm 10 mps 759 mmHg 80%
    16:00 +8°C° 0.6 mm 11 mps 758 mmHg 78%
    17:00 +9°C° 0.6 mm 11 mps 757 mmHg 76%
    18:00 +8°C° 0 mm 11 mps 757 mmHg 78%
    19:00 +8°C° 0 mm 11 mps 756 mmHg 80%
    20:00 +8°C° 0 mm 10 mps 756 mmHg 82%
    21:00 +8°C° 0 mm 9 mps 756 mmHg 78%
    22:00 +9°C° 0 mm 8 mps 755 mmHg 73%
    23:00 +9°C° 0 mm 7 mps 755 mmHg 69%
    Show more